Regional Weather Roundup
Issued by NWS

Home | Current Version | Previous Version | Text Only | Print | Product List | Glossary On
Versions: 1 2 3 4 5 6 7 8 9 10 11 12 13 14 15 16 17 18 19 20 21 22 23 24 25 26 27 28 29 30 31 32 33 34 35 36 37 38 39 40 41 42 43 44 45 46 47 48 49 50
098
ASUS45 KBOU 161607
RWRCO

WEATHER ROUNDUP FOR COLORADO
NATIONAL WEATHER SERVICE DENVER/BOULDER CO
900 AM MST MON JAN 16 2017

NOTE: "FAIR" INDICATES FEW OR NO CLOUDS BELOW 12000 FEET WITH NO
SIGNIFICANT WEATHER AND/OR OBSTRUCTIONS TO VISIBILITY.

COZ001>005-013-030-031-161700-
...NORTHWEST COLORADO...

CITY           SKY/WX    TMP DP  RH WIND       PRES   REMARKS
CRAIG          CLOUDY    12   8  84 CALM      30.15R
HAYDEN         CLOUDY    14   9  79 CALM      30.12R
MEEKER         FAIR      15  12  88 CALM      30.12R
MOUNT WERNER   NOT AVBL
STEAMBOAT SPGS CLOUDY    18  17  93 CALM      30.10R
WALDEN           N/A    N/A N/A N/A S3        30.07R
$$

COZ006>008-011-161700-
...WEST CENTRAL VALLEYS...

CITY           SKY/WX    TMP DP  RH WIND       PRES   REMARKS
GRAND JUNCTION CLOUDY    33  23  66 N7        30.06R WCI  27
MONTROSE       NOT AVBL
EAGLE          CLOUDY    28  27  93 CALM      30.07R
RIFLE          CLOUDY    29  16  58 NW6       30.09R WCI  23
DELTA          CLOUDY    35  30  82 NE3       30.06R
NUCLA          FAIR      32  30  93 CALM      30.04R
$$

COZ017>023-064>068-161700-
...SOUTHWEST COLORADO...

CITY           SKY/WX    TMP DP  RH WIND       PRES   REMARKS
DURANGO        CLOUDY    33  31  92 CALM      29.93R
CORTEZ         FAIR      33  29  85 NW10      29.95R WCI  25
PAGOSA SPRINGS CLOUDY    32  32 100 CALM      29.94R
TELLURIDE      CLOUDY    26  26  99 CALM      29.97R
WOLF CREEK PAS CLOUDY    21  21 100 N9G17     30.00R WCI  11
$$

COZ009-010-012-014-032>034-037-058>063-161700-
...CENTRAL COLORADO...

CITY           SKY/WX    TMP DP  RH WIND       PRES   REMARKS
ASPEN          CLOUDY    25  23  92 N5        30.01R WCI  19
BUENA VISTA    CLOUDY    33  25  73 CALM      29.96R
COPPER MTN     LGT SNOW  23  18  80 MISG      30.00R
BERTHOUD PASS  NOT AVBL
COTTONWOOD PAS CLOUDY    32  28  86 E8        29.97R FOG     WCI  25
GUNNISON       CLOUDY    20  19  96 CALM      29.99R
KREMMLING      FLURRIES  28  23  80 CALM      30.06R
LEADVILLE      CLOUDY    25  18  74 N8        29.95R WCI  16
MONARCH PASS   FOG       21  19  93 MISG      30.06R VSB<1/4
SALIDA         CLOUDY    34  33  94 SW3       30.04R
SUNLIGHT       CLOUDY    19  18  93 NE7       30.04R FOG     WCI  10
WILKERSON PASS CLOUDY   N/A N/A N/A NE17G23   29.99R HAZE
$$

COZ069>075-161700-
...SAN LUIS VALLEY/SANGRE DE CRISTO MOUNTAINS...

CITY           SKY/WX    TMP DP  RH WIND       PRES   REMARKS
ALAMOSA        LGT SNOW  31  30  96 E3        29.93R FOG
LA VETA PASS   LGT SNOW  27  23  86 SE10G18   29.95R WCI  17
SAGUACHE       PTSUNNY   32  28  86 NW14      29.93R WCI  22
$$

COZ035-036-038>040-161700-
...NORTHERN COLORADO FRONT RANGE...

CITY           SKY/WX    TMP DP  RH WIND       PRES   REMARKS
DENVER INTL AP LGT SNOW  29  27  92 NW20      30.06R VSB 3/4 WCI  16
DMNS CITY PARK   N/A     30  30 100 N7        30.10R WCI  23
AURORA         LGT SNOW  29  29 100 N15       30.07R VSB 3/4 WCI  17
FRONT RANGE AP NOT AVBL
ERIE MUNI ARPT LGT SNOW  32  32  99 N5        30.09R WCI  27
BOULDER MUN AP LGT SNOW  32  32 100 CALM      30.09R VSB 3/4
CENTENNIAL     SNOW      28  26  92 N20G30    30.06R VSB 1/2 WCI  15
BROOMFIELD     LGT SNOW  30  30 100 CALM      30.08R VSB 3/4
FORT COLLINS   FAIR      36  25  64 N13G21    30.09R
LONGMONT       LGT SNOW  34  33  95 CALM      30.11R
$$

COZ041-046-047-076>085-087-088-161700-
...PIKES PEAK/PALMER DIVIDE AND SOUTHERN FOOTHILLS...

CITY           SKY/WX    TMP DP  RH WIND       PRES   REMARKS
COLO. SPRINGS  CLOUDY    31  22  69 NW26G41   29.97R WCI  17
A. F. ACADEMY  MIX PCPN  28  23  80 N25G33    29.98R WCI  14
SCHRIEVER AFB  NOT AVBL
ELLICOTT       CLOUDY   N/A N/A N/A N29G40    29.93R
FALCON         PTSUNNY   27  20  76 N25G41    29.94R WCI  12
FORT CARSON    CLOUDY    34  25  69 NE24G33   29.95R WCI  21
LIMON          LGT SNOW  29  27  92 NW25G33   29.97R FOG     WCI  14
MONUMENT HILL  LGT SNOW  23  23 100 N18G28    30.03R WCI   9
TRINIDAD       SNOW      32  29  88 N14       29.97R VSB 1/4 WCI  22
$$

COZ042>045-048>051-090-091-161700-
...NORTHEAST COLORADO...

CITY           SKY/WX    TMP DP  RH WIND       PRES   REMARKS
GREELEY ARPT   LGT SNOW  33  26  75 N15       30.09R WCI  23
AKRON          LGT SNOW  29  26  89 N18       29.99R VSB 3/4 WCI  16
BURLINGTON     CLOUDY    32  30  92 NW16      29.93R FOG     WCI  21
WRAY           NOT AVBL
STERLING       MIX PCPN  32  30  93 NE5       30.01R WCI  27
HOLYOKE        LGT SNOW  34  32  93 N16G22    29.98R WCI  23
FORT MORGAN    LGT SNOW  31  26  81 N15G24    30.04R WCI  20
$$

COZ086-089-092>099-161700-
...SOUTHEAST COLORADO...

CITY           SKY/WX    TMP DP  RH WIND       PRES   REMARKS
PUEBLO         CLOUDY    36  27  69 N18       29.97R
LA JUNTA       LGT SNOW  33  31  92 NW12      29.97R FOG     WCI  24
LAMAR          LGT SNOW  33  30  88 NW8       29.93R FOG     WCI  26
SPRINGFIELD      N/A     31  30  96 NW20G31   29.90R WCI  19
$$




USA.gov is the U.S. government's official web portal to all federal, state and local government web resources and services.